Simultaneous Nadir Overpasses (SNOs) Predictions

Prediction of SNOs between GOES-15 and NOAA-20 Satellite Orbit:

Table of predicted SNOs for the next 14.0 days since TLE Epoch: 9/28/2024
Index Date Time (GOES-15) GOES-15 Lat,Lon NOAA-20 Lat,Lon Distance(km) Time Diff (sec)
1 09/28/2024 09:19:21 -0.29, 61.27 -0.42, 60.85 49.42 80
2 09/29/2024 09:03:18 -0.30, 61.26 0.62, 65.36 467.07 80
3 09/30/2024 21:25:09 0.28, 61.30 0.53, 60.07 139.22 80
4 10/01/2024 21:03:46 0.29, 61.30 -0.45, 64.60 376.34 80
5 10/03/2024 09:25:44 -0.27, 61.26 -0.74, 59.28 226.18 80
6 10/04/2024 09:09:42 -0.28, 61.26 0.31, 63.80 290.11 80
7 10/05/2024 21:31:32 0.26, 61.28 0.87, 58.52 315.19 80
8 10/06/2024 21:10:09 0.27, 61.29 -0.12, 63.04 199.73 80
9 10/08/2024 09:32:07 -0.24, 61.29 -1.04, 57.73 405.79 80
10 10/09/2024 09:16:03 -0.25, 61.29 -0.03, 62.25 109.56 80
11 10/10/2024 21:37:54 0.22, 61.31 1.20, 56.97 495.37 80
12 10/11/2024 21:16:30 0.24, 61.33 0.19, 61.49 18.83 80
